Time,TemperatureF,DewpointF,PressureIn,WindDirection,WindDirectionDegrees,WindSpeedMPH,WindSpeedGustMPH,Humidity,HourlyPrecipIn,Conditions,Clouds,dailyrainin,SoftwareType,DateUTC
2013-02-27 00:02:00,32.0,-99.9,-100.00,NW,316,6.0,-999.0,-999,0.00,,,-99.99,,2013-02-27 06:02:00,
2013-02-27 00:11:00,32.0,-99.9,-100.00,NW,316,6.0,-999.0,-999,0.00,,,-99.99,,2013-02-27 06:11:00,
2013-02-27 00:22:00,32.0,-99.9,-100.00,NW,316,6.0,-999.0,-999,0.00,,,-99.99,,2013-02-27 06:22:00,
2013-02-27 00:33:00,32.0,-99.9,-100.00,NW,316,8.0,-999.0,-999,0.00,,,0.04,,2013-02-27 06:33:00,
2013-02-27 00:42:00,32.0,-99.9,-100.00,NW,316,8.0,-999.0,-999,0.00,,,0.04,,2013-02-27 06:42:00,
2013-02-27 00:52:00,32.0,-99.9,-100.00,NW,316,8.0,-999.0,-999,0.00,,,0.04,,2013-02-27 06:52:00,
2013-02-27 01:01:00,32.0,-99.9,-100.00,NW,311,8.0,-999.0,-999,0.00,,,0.04,,2013-02-27 07:01:00,
2013-02-27 01:12:00,32.0,-99.9,-100.00,NW,311,8.0,-999.0,-999,0.00,,,0.04,,2013-02-27 07:12:00,
2013-02-27 01:22:00,32.0,-99.9,-100.00,NW,311,8.0,-999.0,-999,0.00,,,0.04,,2013-02-27 07:22:00,
2013-02-27 01:32:00,32.0,-99.9,-100.00,NW,318,8.0,-999.0,-999,0.00,,,0.04,,2013-02-27 07:32:00,
2013-02-27 01:42:00,32.0,-99.9,-100.00,NW,318,8.0,-999.0,-999,0.00,,,0.04,,2013-02-27 07:42:00,
2013-02-27 01:52:00,32.0,-99.9,-100.00,NW,318,8.0,-999.0,-999,0.00,,,0.04,,2013-02-27 07:52:00,
2013-02-27 02:01:00,32.0,-99.9,-100.00,WNW,301,6.0,-999.0,-999,0.00,,,0.04,,2013-02-27 08:01:00,
2013-02-27 02:12:00,32.0,-99.9,-100.00,WNW,301,6.0,-999.0,-999,0.00,,,0.04,,2013-02-27 08:12:00,
2013-02-27 02:22:00,32.0,-99.9,-100.00,WNW,301,6.0,-999.0,-999,0.00,,,0.04,,2013-02-27 08:22:00,
2013-02-27 02:32:00,32.0,-99.9,-100.00,WNW,297,6.0,-999.0,-999,0.00,,,0.04,,2013-02-27 08:32:00,
2013-02-27 02:42:00,32.0,-99.9,-100.00,WNW,297,6.0,-999.0,-999,0.00,,,0.04,,2013-02-27 08:42:00,
2013-02-27 02:53:00,32.0,-99.9,-100.00,WNW,297,6.0,-999.0,-999,0.00,,,0.04,,2013-02-27 08:53:00,
2013-02-27 03:02:00,32.0,-99.9,-100.00,WNW,294,6.0,-999.0,-999,0.00,,,0.03,,2013-02-27 09:02:00,
2013-02-27 03:12:00,32.0,-99.9,-100.00,WNW,294,6.0,-999.0,-999,0.00,,,0.03,,2013-02-27 09:12:00,
2013-02-27 03:22:00,32.0,-99.9,-100.00,WNW,294,6.0,-999.0,-999,0.00,,,0.03,,2013-02-27 09:22:00,
2013-02-27 03:32:00,32.0,-99.9,-100.00,WNW,298,7.0,-999.0,-999,0.00,,,0.01,,2013-02-27 09:32:00,
2013-02-27 03:42:00,32.0,-99.9,-100.00,WNW,298,7.0,-999.0,-999,0.00,,,0.01,,2013-02-27 09:42:00,
2013-02-27 03:52:00,32.0,-99.9,-100.00,WNW,298,7.0,-999.0,-999,0.00,,,0.01,,2013-02-27 09:52:00,
2013-02-27 04:01:00,32.0,-99.9,-100.00,NW,310,7.0,-999.0,-999,0.00,,,0.01,,2013-02-27 10:01:00,
2013-02-27 04:13:00,32.0,-99.9,-100.00,NW,310,7.0,-999.0,-999,0.00,,,0.01,,2013-02-27 10:13:00,
2013-02-27 04:22:00,32.0,-99.9,-100.00,NW,310,7.0,-999.0,-999,0.00,,,0.01,,2013-02-27 10:22:00,
2013-02-27 04:33:00,32.0,-99.9,-100.00,NW,309,8.0,-999.0,-999,0.00,,,0.01,,2013-02-27 10:33:00,
2013-02-27 04:42:00,32.0,-99.9,-100.00,NW,309,8.0,-999.0,-999,0.00,,,0.01,,2013-02-27 10:42:00,
2013-02-27 04:53:00,32.0,-99.9,-100.00,NW,309,8.0,-999.0,-999,0.00,,,0.01,,2013-02-27 10:53:00,
2013-02-27 05:03:00,32.0,-99.9,-100.00,NW,311,7.0,-999.0,-999,0.00,,,0.01,,2013-02-27 11:03:00,
2013-02-27 05:12:00,32.0,-99.9,-100.00,NW,311,7.0,-999.0,-999,0.00,,,0.01,,2013-02-27 11:12:00,
2013-02-27 05:22:00,32.0,-99.9,-100.00,NW,311,7.0,-999.0,-999,0.00,,,0.01,,2013-02-27 11:22:00,
2013-02-27 05:32:00,32.0,-99.9,-100.00,NW,313,5.0,-999.0,-999,0.00,,,0.01,,2013-02-27 11:32:00,
2013-02-27 05:42:00,32.0,-99.9,-100.00,NW,313,5.0,-999.0,-999,0.00,,,0.01,,2013-02-27 11:42:00,
2013-02-27 05:52:00,32.0,-99.9,-100.00,NW,313,5.0,-999.0,-999,0.00,,,0.01,,2013-02-27 11:52:00,
2013-02-27 06:02:00,32.0,-99.9,-100.00,NW,314,8.0,-999.0,-999,0.00,,,-99.99,,2013-02-27 12:02:00,
2013-02-27 06:13:00,32.0,-99.9,-100.00,NW,314,8.0,-999.0,-999,0.00,,,-99.99,,2013-02-27 12:13:00,
2013-02-27 06:22:00,32.0,-99.9,-100.00,NW,314,8.0,-999.0,-999,0.00,,,-99.99,,2013-02-27 12:22:00,
2013-02-27 06:33:00,32.0,-99.9,-100.00,NW,305,5.0,-999.0,-999,0.00,,,0.01,,2013-02-27 12:33:00,
2013-02-27 06:42:00,32.0,-99.9,-100.00,NW,305,5.0,-999.0,-999,0.00,,,0.01,,2013-02-27 12:42:00,
2013-02-27 06:53:00,32.0,-99.9,-100.00,NW,305,5.0,-999.0,-999,0.00,,,0.01,,2013-02-27 12:53:00,
2013-02-27 07:03:00,31.0,-99.9,-100.00,NW,305,7.0,-999.0,-999,0.00,,,0.01,,2013-02-27 13:03:00,
2013-02-27 07:12:00,31.0,-99.9,-100.00,NW,305,7.0,-999.0,-999,0.00,,,0.01,,2013-02-27 13:12:00,
2013-02-27 07:22:00,31.0,-99.9,-100.00,NW,305,7.0,-999.0,-999,0.00,,,0.01,,2013-02-27 13:22:00,
2013-02-27 07:32:00,31.0,-99.9,-100.00,WNW,293,7.0,-999.0,-999,0.00,,,0.01,,2013-02-27 13:32:00,
2013-02-27 07:42:00,31.0,-99.9,-100.00,WNW,293,7.0,-999.0,-999,0.00,,,0.01,,2013-02-27 13:42:00,
2013-02-27 07:53:00,31.0,-99.9,-100.00,WNW,293,7.0,-999.0,-999,0.00,,,0.01,,2013-02-27 13:53:00,
2013-02-27 08:02:00,31.0,-99.9,-100.00,WNW,292,6.0,-999.0,-999,0.00,,,0.01,,2013-02-27 14:02:00,
2013-02-27 08:12:00,31.0,-99.9,-100.00,WNW,292,6.0,-999.0,-999,0.00,,,0.01,,2013-02-27 14:12:00,
2013-02-27 08:22:00,31.0,-99.9,-100.00,WNW,292,6.0,-999.0,-999,0.00,,,0.01,,2013-02-27 14:22:00,
2013-02-27 08:32:00,31.0,-99.9,-100.00,WNW,297,6.0,-999.0,-999,0.00,,,0.00,,2013-02-27 14:32:00,
2013-02-27 08:42:00,31.0,-99.9,-100.00,WNW,297,6.0,-999.0,-999,0.00,,,0.00,,2013-02-27 14:42:00,
2013-02-27 08:53:00,31.0,-99.9,-100.00,WNW,297,6.0,-999.0,-999,0.00,,,0.00,,2013-02-27 14:53:00,
2013-02-27 09:02:00,32.0,-99.9,-100.00,WNW,295,6.0,-999.0,-999,0.00,,,0.00,,2013-02-27 15:02:00,
2013-02-27 09:13:00,32.0,-99.9,-100.00,WNW,295,6.0,-999.0,-999,0.00,,,0.00,,2013-02-27 15:13:00,
2013-02-27 09:23:00,32.0,-99.9,-100.00,WNW,295,6.0,-999.0,-999,0.00,,,0.00,,2013-02-27 15:23:00,
2013-02-27 09:32:00,32.0,-99.9,-100.00,WNW,293,6.0,-999.0,-999,0.02,,,0.02,,2013-02-27 15:32:00,
2013-02-27 09:42:00,32.0,-99.9,-100.00,WNW,293,6.0,-999.0,-999,0.02,,,0.02,,2013-02-27 15:42:00,
2013-02-27 09:52:00,32.0,-99.9,-100.00,WNW,293,6.0,-999.0,-999,0.02,,,0.02,,2013-02-27 15:52:00,
2013-02-27 10:00:00,32.0,-99.9,-100.00,WNW,286,9.0,-999.0,-999,0.01,,,0.03,,2013-02-27 16:00:00,
2013-02-27 10:02:00,32.0,-99.9,-100.00,WNW,295,7.0,-999.0,-999,0.03,,,0.03,,2013-02-27 16:02:00,
2013-02-27 10:12:00,32.0,-99.9,-100.00,WNW,295,7.0,-999.0,-999,0.03,,,0.03,,2013-02-27 16:12:00,
2013-02-27 10:22:00,32.0,-99.9,-100.00,WNW,295,7.0,-999.0,-999,0.03,,,0.03,,2013-02-27 16:22:00,
2013-02-27 10:32:00,32.0,-99.9,-100.00,WNW,286,9.0,-999.0,-999,0.01,,,0.03,,2013-02-27 16:32:00,
2013-02-27 10:42:00,32.0,-99.9,-100.00,WNW,286,9.0,-999.0,-999,0.01,,,0.03,,2013-02-27 16:42:00,
2013-02-27 10:52:00,32.0,-99.9,-100.00,WNW,286,9.0,-999.0,-999,0.01,,,0.03,,2013-02-27 16:52:00,
2013-02-27 11:11:00,32.0,-99.9,-100.00,WNW,295,8.0,-999.0,-999,0.00,,,0.03,,2013-02-27 17:11:00,
2013-02-27 11:22:00,32.0,-99.9,-100.00,WNW,295,8.0,-999.0,-999,0.00,,,0.03,,2013-02-27 17:22:00,
2013-02-27 11:32:00,32.0,-99.9,-100.00,WNW,292,8.0,-999.0,-999,0.00,,,0.03,,2013-02-27 17:32:00,
2013-02-27 11:42:00,32.0,-99.9,-100.00,WNW,292,8.0,-999.0,-999,0.00,,,0.03,,2013-02-27 17:42:00,
2013-02-27 11:52:00,32.0,-99.9,-100.00,WNW,292,8.0,-999.0,-999,0.00,,,0.03,,2013-02-27 17:52:00,
2013-02-27 12:02:00,32.0,-99.9,-100.00,WNW,298,9.0,-999.0,-999,0.00,,,0.03,,2013-02-27 18:02:00,
2013-02-27 12:11:00,32.0,-99.9,-100.00,WNW,298,9.0,-999.0,-999,0.00,,,0.03,,2013-02-27 18:11:00,
2013-02-27 12:22:00,32.0,-99.9,-100.00,WNW,298,9.0,-999.0,-999,0.00,,,0.03,,2013-02-27 18:22:00,
2013-02-27 12:32:00,32.0,-99.9,-100.00,WNW,294,10.0,-999.0,-999,0.00,,,0.03,,2013-02-27 18:32:00,
2013-02-27 12:42:00,32.0,-99.9,-100.00,WNW,294,10.0,-999.0,-999,0.00,,,0.03,,2013-02-27 18:42:00,
2013-02-27 12:52:00,32.0,-99.9,-100.00,WNW,294,10.0,-999.0,-999,0.00,,,0.03,,2013-02-27 18:52:00,
2013-02-27 13:02:00,32.0,-99.9,-100.00,WNW,292,7.0,-999.0,-999,0.00,,,0.03,,2013-02-27 19:02:00,
2013-02-27 13:12:00,32.0,-99.9,-100.00,WNW,292,7.0,-999.0,-999,0.00,,,0.03,,2013-02-27 19:12:00,
2013-02-27 13:22:00,32.0,-99.9,-100.00,WNW,292,7.0,-999.0,-999,0.00,,,0.03,,2013-02-27 19:22:00,
2013-02-27 13:33:00,32.0,-99.9,-100.00,WNW,287,9.0,-999.0,-999,0.00,,,0.03,,2013-02-27 19:33:00,
2013-02-27 13:42:00,32.0,-99.9,-100.00,WNW,287,9.0,-999.0,-999,0.00,,,0.03,,2013-02-27 19:42:00,
2013-02-27 13:52:00,32.0,-99.9,-100.00,WNW,287,9.0,-999.0,-999,0.00,,,0.03,,2013-02-27 19:52:00,
2013-02-27 14:02:00,32.0,-99.9,-100.00,WNW,286,7.0,-999.0,-999,0.00,,,0.03,,2013-02-27 20:02:00,
2013-02-27 14:12:00,32.0,-99.9,-100.00,WNW,286,7.0,-999.0,-999,0.00,,,0.03,,2013-02-27 20:12:00,
2013-02-27 14:22:00,32.0,-99.9,-100.00,WNW,286,7.0,-999.0,-999,0.00,,,0.03,,2013-02-27 20:22:00,
2013-02-27 14:32:00,32.0,-99.9,-100.00,WNW,282,10.0,-999.0,-999,0.00,,,-99.99,,2013-02-27 20:32:00,
2013-02-27 14:42:00,32.0,-99.9,-100.00,WNW,282,10.0,-999.0,-999,0.00,,,-99.99,,2013-02-27 20:42:00,
2013-02-27 14:53:00,32.0,-99.9,-100.00,WNW,282,10.0,-999.0,-999,0.00,,,-99.99,,2013-02-27 20:53:00,
2013-02-27 15:02:00,32.0,-99.9,-100.00,WNW,296,9.0,-999.0,-999,0.00,,,-99.99,,2013-02-27 21:02:00,
2013-02-27 15:12:00,32.0,-99.9,-100.00,WNW,296,9.0,-999.0,-999,0.00,,,-99.99,,2013-02-27 21:12:00,
2013-02-27 15:22:00,32.0,-99.9,-100.00,WNW,296,9.0,-999.0,-999,0.00,,,-99.99,,2013-02-27 21:22:00,
2013-02-27 15:32:00,32.0,-99.9,-100.00,WNW,293,7.0,-999.0,-999,0.00,,,0.03,,2013-02-27 21:32:00,
2013-02-27 15:42:00,32.0,-99.9,-100.00,WNW,293,7.0,-999.0,-999,0.00,,,0.03,,2013-02-27 21:42:00,
2013-02-27 15:52:00,32.0,-99.9,-100.00,WNW,293,7.0,-999.0,-999,0.00,,,0.03,,2013-02-27 21:52:00,
2013-02-27 16:02:00,31.0,-99.9,-100.00,WNW,297,9.0,-999.0,-999,0.00,,,0.03,,2013-02-27 22:02:00,
2013-02-27 16:12:00,31.0,-99.9,-100.00,WNW,297,9.0,-999.0,-999,0.00,,,0.03,,2013-02-27 22:12:00,
2013-02-27 16:22:00,31.0,-99.9,-100.00,WNW,297,9.0,-999.0,-999,0.00,,,0.03,,2013-02-27 22:22:00,
2013-02-27 16:32:00,32.0,-99.9,-100.00,WNW,291,8.0,-999.0,-999,0.00,,,0.03,,2013-02-27 22:32:00,
2013-02-27 16:42:00,32.0,-99.9,-100.00,WNW,291,8.0,-999.0,-999,0.00,,,0.03,,2013-02-27 22:42:00,
2013-02-27 16:52:00,32.0,-99.9,-100.00,WNW,291,8.0,-999.0,-999,0.00,,,0.03,,2013-02-27 22:52:00,
2013-02-27 17:02:00,32.0,-99.9,-100.00,WNW,303,9.0,-999.0,-999,0.00,,,0.03,,2013-02-27 23:02:00,
2013-02-27 17:12:00,32.0,-99.9,-100.00,WNW,303,9.0,-999.0,-999,0.00,,,0.03,,2013-02-27 23:12:00,
2013-02-27 17:22:00,32.0,-99.9,-100.00,WNW,303,9.0,-999.0,-999,0.00,,,0.03,,2013-02-27 23:22:00,
2013-02-27 17:32:00,31.0,-99.9,-100.00,WNW,294,8.0,-999.0,-999,0.00,,,0.03,,2013-02-27 23:32:00,
2013-02-27 17:42:00,31.0,-99.9,-100.00,WNW,294,8.0,-999.0,-999,0.00,,,0.03,,2013-02-27 23:42:00,
2013-02-27 17:53:00,31.0,-99.9,-100.00,WNW,294,8.0,-999.0,-999,0.00,,,0.03,,2013-02-27 23:53:00,
2013-02-27 18:02:00,31.0,-99.9,-100.00,NW,304,8.0,-999.0,-999,0.00,,,0.03,,2013-02-28 00:02:00,
2013-02-27 18:13:00,31.0,-99.9,-100.00,NW,304,8.0,-999.0,-999,0.00,,,0.03,,2013-02-28 00:13:00,
2013-02-27 18:22:00,31.0,-99.9,-100.00,NW,304,8.0,-999.0,-999,0.00,,,0.03,,2013-02-28 00:22:00,
2013-02-27 18:32:00,31.0,-99.9,-100.00,WNW,295,7.0,-999.0,-999,0.00,,,0.03,,2013-02-28 00:32:00,
2013-02-27 18:42:00,31.0,-99.9,-100.00,WNW,295,7.0,-999.0,-999,0.00,,,0.03,,2013-02-28 00:42:00,
2013-02-27 18:52:00,31.0,-99.9,-100.00,WNW,295,7.0,-999.0,-999,0.00,,,0.03,,2013-02-28 00:52:00,
2013-02-27 19:01:00,31.0,-99.9,-100.00,WNW,293,8.0,-999.0,-999,0.00,,,0.03,,2013-02-28 01:01:00,
2013-02-27 19:12:00,31.0,-99.9,-100.00,WNW,293,8.0,-999.0,-999,0.00,,,0.03,,2013-02-28 01:12:00,
2013-02-27 19:22:00,31.0,-99.9,-100.00,WNW,293,8.0,-999.0,-999,0.00,,,0.03,,2013-02-28 01:22:00,
2013-02-27 19:30:00,31.0,-99.9,-100.00,WNW,293,8.0,-999.0,-999,0.00,,,0.03,,2013-02-28 01:30:00,
2013-02-27 19:32:00,31.0,-99.9,-100.00,WNW,296,9.0,-999.0,-999,0.00,,,0.03,,2013-02-28 01:32:00,
2013-02-27 19:42:00,31.0,-99.9,-100.00,WNW,296,9.0,-999.0,-999,0.00,,,0.03,,2013-02-28 01:42:00,
2013-02-27 19:52:00,31.0,-99.9,-100.00,WNW,296,9.0,-999.0,-999,0.00,,,0.03,,2013-02-28 01:52:00,
2013-02-27 20:02:00,31.0,-99.9,-100.00,WNW,293,8.0,-999.0,-999,0.00,,,0.03,,2013-02-28 02:02:00,
2013-02-27 20:11:00,31.0,-99.9,-100.00,WNW,293,8.0,-999.0,-999,0.00,,,0.03,,2013-02-28 02:11:00,
2013-02-27 20:22:00,31.0,-99.9,-100.00,WNW,293,8.0,-999.0,-999,0.00,,,0.03,,2013-02-28 02:22:00,
2013-02-27 21:02:00,31.0,-99.9,-100.00,WNW,294,8.0,-999.0,-999,0.00,,,0.03,,2013-02-28 03:02:00,
2013-02-27 21:11:00,31.0,-99.9,-100.00,WNW,294,8.0,-999.0,-999,0.00,,,0.03,,2013-02-28 03:11:00,
2013-02-27 21:22:00,31.0,-99.9,-100.00,WNW,294,8.0,-999.0,-999,0.00,,,0.03,,2013-02-28 03:22:00,
2013-02-27 21:32:00,31.0,-99.9,-100.00,WNW,289,8.0,-999.0,-999,0.00,,,0.03,,2013-02-28 03:32:00,
2013-02-27 21:42:00,31.0,-99.9,-100.00,WNW,289,8.0,-999.0,-999,0.00,,,0.03,,2013-02-28 03:42:00,
2013-02-27 21:52:00,31.0,-99.9,-100.00,WNW,289,8.0,-999.0,-999,0.00,,,0.03,,2013-02-28 03:52:00,
2013-02-27 22:02:00,31.0,-99.9,-100.00,WNW,291,9.0,-999.0,-999,0.00,,,0.03,,2013-02-28 04:02:00,
2013-02-27 22:11:00,31.0,-99.9,-100.00,WNW,291,9.0,-999.0,-999,0.00,,,0.03,,2013-02-28 04:11:00,
2013-02-27 22:22:00,31.0,-99.9,-100.00,WNW,291,9.0,-999.0,-999,0.00,,,0.03,,2013-02-28 04:22:00,
2013-02-27 22:32:00,31.0,-99.9,-100.00,WNW,291,8.0,-999.0,-999,0.00,,,0.03,,2013-02-28 04:32:00,
2013-02-27 22:42:00,31.0,-99.9,-100.00,WNW,291,8.0,-999.0,-999,0.00,,,0.03,,2013-02-28 04:42:00,
2013-02-27 22:52:00,31.0,-99.9,-100.00,WNW,291,8.0,-999.0,-999,0.00,,,0.03,,2013-02-28 04:52:00,
2013-02-27 23:02:00,31.0,-99.9,-100.00,WNW,298,7.0,-999.0,-999,0.00,,,0.03,,2013-02-28 05:02:00,
2013-02-27 23:12:00,31.0,-99.9,-100.00,WNW,298,7.0,-999.0,-999,0.00,,,0.03,,2013-02-28 05:12:00,
2013-02-27 23:22:00,31.0,-99.9,-100.00,WNW,298,7.0,-999.0,-999,0.00,,,0.03,,2013-02-28 05:22:00,
2013-02-27 23:32:00,31.0,-99.9,-100.00,WNW,295,6.0,-999.0,-999,0.00,,,0.03,,2013-02-28 05:32:00,
2013-02-27 23:43:00,31.0,-99.9,-100.00,WNW,295,6.0,-999.0,-999,0.00,,,0.03,,2013-02-28 05:43:00,
2013-02-27 23:52:00,31.0,-99.9,-100.00,WNW,295,6.0,-999.0,-999,0.00,,,0.03,,2013-02-28 05:52:00,